Location: ????
(30.2663°N, 31.2484°E)
Time: 12:59:12
(UTC+00:00)

CZ-2C R/B - Pass Details

Date: 31 March 2023
Orbit: 784 x 870 km, 98.3° (Epoch: 28 May)

Event Time Altitude Azimuth Distance (km) Brightness Sun altitude
Exits shadow 02:21:45 33° 256° (WSW) 1,426 3.3 -18.7°
Maximum altitude 02:22:02 33° 262° (W) 1,421 3.3 -18.7°
Drops below altitude 10° 02:26:59 10° 325° (NW) 2,494 5.0 -17.6°
Sets 02:29:36 0° 335° (NNW) 3,423 5.8 -17.1°
